Location: ??????????
(44.2167°N, 135.5333°E)
Time: 14:55:27
(UTC+00:00)

IDEFIX/ARIANE 42P - Pass Details

Date: 15 June 2025
Orbit: 780 x 798 km, 98.6° (Epoch: 16 July)

Event Time Altitude Azimuth Distance (km) Brightness Sun altitude
Rises 16:18:32 0° 17° (NNE) 3,310 7.4 -20.0°
Reaches altitude 10° 16:20:56 10° 22° (NNE) 2,373 6.3 -19.9°
Maximum altitude 16:26:04 55° 100° (E) 947 3.0 -19.5°
Enters shadow 16:28:29 30° 165° (SSE) 1,392 3.4 -19.4°
